Tracking 17264 objects as of 2-September-2015
HD Live streaming from Space Station

Track Soyuz TMA-18M
and Space Station

DELTA 1 DEB

Track DELTA 1 DEB now!
10-day predictions
DELTA 1 DEB is classified as:


NORAD ID: 2888
Int'l Code: 1965-089D
Perigee: 1,158.9 km
Apogee: 2,331.5 km
Inclination: 59.2 °
Period: 121.3 minutes
Semi major axis: 8116 km
RCS: 0.0459 m2 (small)
Launch date: November 6, 1965
Source: United States (US)

Note: This is SATELLITE DEBRIS
Your satellite tracking list
Your tracking list is empty





NASA's NSSDC Master Catalog

Two Line Element Set (TLE):
1 02888U 65089D   15244.16680735 -.00000032  00000-0  29441-3 0  9995
2 02888  59.1986  94.5787 0722360 127.8943 339.4233 11.87337540106788

Source of the keplerian elements: AFSPC

N2YO: 279